{"data":{"norad_id":56903,"epoch":"2026-09-19T18:18:02.064960Z","epoch_age_seconds":181299,"freshness":"STALE","line1":"1 56903U 23083AD  26262.76252390 -.00000241  00000+0  75947-6 0  9996","line2":"2 56903  43.0030  65.5566 0001237 267.2066  92.8644 15.27574935181461","mean_motion":15.27574935,"eccentricity":0.0001237,"inclination_deg":43.003,"raan_deg":65.5566,"arg_perigee_deg":267.2066,"mean_anomaly_deg":92.8644,"bstar":7.5947e-7,"rev_number":18146,"period_min":94.267061275131,"perigee_km":482.21553191751,"apogee_km":483.91299310986,"semimajor_km":6861.2012625137,"source":"CELESTRAK","updated_at":"2026-09-21T09:00:33.525145Z"}}